Location: Eschertshofen
(49.3064°N, 11.5756°E)
Time: 13:12:53
(UTC+00:00)

Iridium 26 - Pass Details

Date: 30 September 2021
Orbit: 772 x 775 km, 86.4° (Epoch: 15 October)

Event Time Altitude Azimuth Distance (km) Brightness Sun altitude
Exits shadow 21:24:25 20° 310° (NW) 1,728 7.8 -39.3°
Drops below altitude 10° 21:27:07 10° 339° (NNW) 2,332 8.7 -39.5°
Sets 21:29:59 0° 354° (N) 3,263 9.5 -39.7°
